Location: Aniagüita
(10.0946°N, 66.9708°W)
Time: 16:57:47
(UTC+00:00)

Sich 1 Rocket - Pass Details

Date: 30 June 2022
Orbit: 616 x 651 km, 82.5° (Epoch: 07 August)

Event Time Altitude Azimuth Distance (km) Brightness Sun altitude
Rises 23:41:58 0° 11° (N) 2,959 7.3 -11.8°
Reaches altitude 10° 23:44:24 10° 20° (NNE) 2,049 6.3 -12.3°
Maximum altitude 23:48:30 33° 85° (E) 1,088 4.4 -13.2°
Enters shadow 23:51:00 19° 136° (SE) 1,518 5.0 -13.8°
